Weather History for Keahole Point, HI

Change the Weather History Date:

Friday, November 16, 2012

  Actual Average Record
Temperature  
Mean Temperature 77 °F -  
Max Temperature 82 °F 82 °F 92 °F (1986)
Min Temperature 72 °F 70 °F 67 °F (1982)
Cooling Degree Days 12    
Growing Degree Days 27 (Base 50)    
Moisture  
Dew Point 62 °F    
Average Humidity 59    
Maximum Humidity 68    
Minimum Humidity 52    
Precipitation  
Precipitation 0.00 in - - ()
Sea Level Pressure  
Sea Level Pressure 30.02 in    
Wind  
Wind Speed 6 mph (ESE)    
Max Wind Speed 10 mph    
Max Gust Speed -    
Visibility 10 miles    
Events      
Averages and records for this station are not official NWS values.
T = Trace of Precipitation, MM = Missing Value Source: NWS Daily Summary

Daily Weather History Graph

Daily Weather History Graph

Search for Another Location

Airport:

Trip Planner

Search our weather history database for the weather conditions in past years. The results will help you decide how hot, cold, wet, or windy it might be!

Date:

Astronomy

Nov. 16, 2012 Rise Set
Actual Time 6:33 AM HST 5:44 PM HST
Civil Twilight 6:10 AM HST 6:07 PM HST
Nautical Twilight 5:43 AM HST 6:34 PM HST
Astronomical Twilight 5:17 AM HST 7:00 PM HST
Moon 9:32 AM HST (11/16) 9:00 PM HST (11/16)
Length of Visible Light 11h 57m
Length of Day
11h 10m
Waxing Crescent, 13% of the Moon is Illuminated
Nov 16
Waxing Crescent
Nov 20
First Quarter
Nov 28
Full
Dec 6
Last Quarter
Dec 12
New

Hourly Weather History & Observations

Time (HST) Temp. Heat Index Dew Point Humidity Pressure Visibility Wind Dir Wind Speed Gust Speed Precip Events Conditions
12:53 AM 73.9 °F - 60.1 °F 62% 30.03 in 10.0 mi North 4.6 mph - N/A   Clear
1:53 AM 73.0 °F - 57.0 °F 57% 30.01 in 10.0 mi ENE 4.6 mph - N/A   Clear
2:53 AM 73.0 °F - 60.1 °F 64% 30.00 in 10.0 mi ENE 4.6 mph - N/A   Clear
3:53 AM 72.0 °F - 61.0 °F 68% 29.99 in 10.0 mi ENE 4.6 mph - N/A   Clear
4:53 AM 73.0 °F - 59.0 °F 61% 30.00 in 10.0 mi NNE 4.6 mph - N/A   Clear
5:53 AM 72.0 °F - 61.0 °F 68% 30.01 in 10.0 mi ENE 4.6 mph - N/A   Scattered Clouds
6:53 AM 72.0 °F - 59.0 °F 64% 30.03 in 10.0 mi NE 3.5 mph - N/A   Clear
7:53 AM 75.0 °F - 63.0 °F 66% 30.04 in 10.0 mi NNE 3.5 mph - N/A   Clear
8:53 AM 78.1 °F - 62.1 °F 58% 30.06 in 10.0 mi NE 4.6 mph - N/A   Scattered Clouds
9:53 AM 81.0 °F 82.5 °F 64.0 °F 56% 30.06 in 10.0 mi South 10.4 mph - N/A   Partly Cloudy
10:53 AM 81.0 °F 82.5 °F 64.0 °F 56% 30.04 in 10.0 mi SSW 9.2 mph - N/A   Partly Cloudy
11:53 AM 82.0 °F 83.1 °F 63.0 °F 52% 30.03 in 10.0 mi SSW 9.2 mph - N/A   Clear
12:53 PM 82.9 °F 84.4 °F 64.0 °F 53% 30.00 in 10.0 mi SSW 9.2 mph - N/A   Partly Cloudy
1:53 PM 82.0 °F 83.4 °F 64.0 °F 54% 29.98 in 10.0 mi South 10.4 mph - N/A   Partly Cloudy
2:53 PM 80.1 °F 81.7 °F 64.0 °F 58% 29.97 in 10.0 mi South 9.2 mph - N/A   Mostly Cloudy
3:53 PM 79.0 °F - 63.0 °F 58% 29.98 in 10.0 mi South 8.1 mph - N/A   Partly Cloudy
4:53 PM 79.0 °F - 64.0 °F 60% 29.99 in 10.0 mi South 6.9 mph - N/A   Mostly Cloudy
5:53 PM 78.1 °F - 64.0 °F 62% 30.00 in 10.0 mi SSE 5.8 mph - N/A   Scattered Clouds
6:53 PM 78.1 °F - 64.0 °F 62% 30.02 in 10.0 mi South 5.8 mph - N/A   Mostly Cloudy
7:53 PM 78.1 °F - 63.0 °F 60% 30.03 in 10.0 mi SSE 6.9 mph - N/A   Clear
8:53 PM 77.0 °F - 59.0 °F 54% 30.04 in 10.0 mi East 6.9 mph - N/A   Clear
9:53 PM 75.9 °F - 59.0 °F 56% 30.04 in 10.0 mi East 3.5 mph - N/A   Partly Cloudy
10:53 PM 75.9 °F - 60.1 °F 58% 30.05 in 10.0 mi Calm Calm - N/A   Mostly Cloudy
11:53 PM 75.0 °F - 60.1 °F 60% 30.04 in 10.0 mi NE 4.6 mph - N/A   Scattered Clouds